TimeEDT,TemperatureF,Dew PointF,Humidity,Sea Level PressureIn,VisibilityMPH,Wind Direction,Wind SpeedMPH,Gust SpeedMPH,PrecipitationIn,Events,Conditions,WindDirDegrees,DateUTC
12:54 AM,63.0,55.0,75,29.99,10.0,Calm,Calm,-,N/A,,Clear,0,2013-09-05 04:54:00
1:54 AM,63.0,55.0,75,29.97,10.0,Calm,Calm,-,N/A,,Clear,0,2013-09-05 05:54:00
2:54 AM,62.1,55.0,78,29.98,10.0,Calm,Calm,-,N/A,,Partly Cloudy,0,2013-09-05 06:54:00
3:54 AM,64.9,55.9,73,29.97,10.0,WNW,8.1,-,N/A,,Mostly Cloudy,290,2013-09-05 07:54:00
4:54 AM,64.9,55.9,73,29.98,10.0,West,6.9,-,N/A,,Mostly Cloudy,270,2013-09-05 08:54:00
5:54 AM,63.0,55.9,78,29.99,10.0,West,6.9,-,N/A,,Overcast,280,2013-09-05 09:54:00
6:54 AM,64.0,55.9,75,30.00,10.0,West,9.2,-,N/A,,Mostly Cloudy,280,2013-09-05 10:54:00
7:54 AM,64.9,55.9,73,30.02,10.0,West,11.5,-,N/A,,Overcast,260,2013-09-05 11:54:00
8:54 AM,66.9,57.0,70,30.01,10.0,West,8.1,-,N/A,,Mostly Cloudy,260,2013-09-05 12:54:00
9:20 AM,66.2,55.4,68,30.03,10.0,WNW,5.8,-,N/A,,Overcast,290,2013-09-05 13:20:00
9:54 AM,66.9,53.1,61,30.04,10.0,North,8.1,18.4,N/A,,Mostly Cloudy,350,2013-09-05 13:54:00
10:54 AM,71.1,46.0,41,30.05,10.0,NW,10.4,17.3,N/A,,Clear,320,2013-09-05 14:54:00
11:54 AM,73.0,41.0,31,30.05,10.0,NNW,10.4,18.4,N/A,,Clear,340,2013-09-05 15:54:00
12:54 PM,73.9,39.9,29,30.06,10.0,North,12.7,23.0,N/A,,Clear,360,2013-09-05 16:54:00
1:54 PM,75.0,39.9,28,30.07,10.0,NW,11.5,-,N/A,,Partly Cloudy,320,2013-09-05 17:54:00
2:54 PM,75.0,37.9,26,30.06,10.0,North,10.4,-,N/A,,Scattered Clouds,10,2013-09-05 18:54:00
3:54 PM,75.0,41.0,29,30.05,10.0,North,12.7,18.4,N/A,,Scattered Clouds,360,2013-09-05 19:54:00
4:54 PM,75.9,42.1,30,30.05,10.0,NNE,13.8,19.6,N/A,,Scattered Clouds,20,2013-09-05 20:54:00
5:54 PM,73.9,39.0,28,30.06,10.0,North,9.2,18.4,N/A,,Clear,350,2013-09-05 21:54:00
6:54 PM,71.1,43.0,36,30.07,10.0,North,5.8,-,N/A,,Clear,350,2013-09-05 22:54:00
7:54 PM,66.9,45.0,45,30.10,10.0,North,6.9,-,N/A,,Clear,360,2013-09-05 23:54:00
8:54 PM,64.0,45.0,50,30.14,10.0,Variable,3.5,-,N/A,,Clear,0,2013-09-06 00:54:00
9:54 PM,61.0,43.0,52,30.17,10.0,Calm,Calm,-,N/A,,Clear,0,2013-09-06 01:54:00
10:54 PM,57.9,44.1,60,30.19,10.0,Calm,Calm,-,N/A,,Clear,0,2013-09-06 02:54:00
11:54 PM,57.9,42.1,56,30.20,10.0,Variable,3.5,-,N/A,,Clear,0,2013-09-06 03:54:00